Weather History for Arlington, WA

Change the Weather History Date:

Friday, March 14, 2014

  Actual Average Record
Temperature  
Mean Temperature 50 °F -  
Max Temperature 55 °F 0 °F 62 °F (2005)
Min Temperature 46 °F - 26 °F (1997)
Degree Days  
Heating Degree Days 14    
Moisture  
Dew Point 42 °F    
Average Humidity 75    
Maximum Humidity 93    
Minimum Humidity 54    
Precipitation  
Precipitation 0.07 in - - ()
Sea Level Pressure  
Sea Level Pressure 30.09 in    
Wind  
Wind Speed 12 mph (SSW)    
Max Wind Speed 20 mph    
Max Gust Speed 28 mph    
Visibility 10 miles    
Events      
Averages and records for this station are not official NWS values.
T = Trace of Precipitation, MM = Missing Value Source: NWS Daily Summary

Daily Weather History Graph

Daily Weather History Graph

Search for Another Location

Airport:

Trip Planner

Search our weather history database for the weather conditions in past years. The results will help you decide how hot, cold, wet, or windy it might be!

Date:

Astronomy

Mar. 14, 2014 Rise Set
Actual Time 7:23 AM PDT 7:12 PM PDT
Civil Twilight 6:52 AM PDT 7:43 PM PDT
Nautical Twilight 6:16 AM PDT 8:20 PM PDT
Astronomical Twilight 5:39 AM PDT 8:57 PM PDT
Moon 5:35 PM PDT (3/14) 6:12 AM PDT (3/14)
Length of Visible Light 12h 51m
Length of Day
11h 49m
Waxing Gibbous, 96% of the Moon is Illuminated
Mar 14
Waxing Gibbous
Mar 16
Full
Mar 23
Last Quarter
Mar 30
New
Apr 7
First Quarter

Hourly Weather History & Observations

Time (PDT) Temp. Windchill Dew Point Humidity Pressure Visibility Wind Dir Wind Speed Gust Speed Precip Events Conditions
12:15 AM 48.2 °F - 42.8 °F 82% 30.00 in 10.0 mi SE 16.1 mph - N/A   Overcast
12:35 AM 48.2 °F - 42.8 °F 82% 30.00 in 10.0 mi SE 13.8 mph - N/A   Overcast
12:55 AM 48.2 °F - 42.8 °F 82% 29.99 in 10.0 mi SE 13.8 mph - N/A   Overcast
1:15 AM 48.2 °F - 42.8 °F 82% 29.98 in 10.0 mi SE 19.6 mph 24.2 mph N/A   Overcast
1:35 AM 48.2 °F - 44.6 °F 87% 29.97 in 10.0 mi SE 17.3 mph - N/A   Overcast
1:55 AM 48.2 °F - 44.6 °F 87% 29.97 in 10.0 mi SE 18.4 mph - N/A   Overcast
2:15 AM 48.2 °F - 44.6 °F 87% 29.96 in 10.0 mi SE 15.0 mph 23.0 mph N/A   Overcast
2:35 AM 48.2 °F - 44.6 °F 87% 29.96 in 10.0 mi SE 17.3 mph - N/A   Overcast
2:55 AM 48.2 °F - 44.6 °F 87% 29.95 in 10.0 mi SE 16.1 mph - N/A   Overcast
3:15 AM 48.2 °F - 44.6 °F 87% 29.94 in 10.0 mi SE 16.1 mph 20.7 mph N/A   Overcast
3:35 AM 48.2 °F - 44.6 °F 87% 29.92 in 10.0 mi SE 18.4 mph 25.3 mph N/A   Overcast
3:55 AM 48.2 °F - 44.6 °F 87% 29.92 in 10.0 mi SE 16.1 mph 20.7 mph N/A   Overcast
4:15 AM 48.2 °F - 44.6 °F 87% 29.91 in 10.0 mi SE 16.1 mph - N/A   Overcast
4:35 AM 48.2 °F - 44.6 °F 87% 29.90 in 10.0 mi SE 19.6 mph 25.3 mph N/A   Overcast
4:55 AM 50.0 °F - 46.4 °F 87% 29.90 in 10.0 mi SSE 16.1 mph 27.6 mph N/A   Overcast
5:15 AM 48.2 °F - 44.6 °F 87% 29.90 in 10.0 mi South 12.7 mph - N/A   Overcast
5:35 AM 50.0 °F - 44.6 °F 82% 29.90 in 10.0 mi SSE 12.7 mph - N/A   Overcast
5:55 AM 50.0 °F - 44.6 °F 82% 29.90 in 10.0 mi South 13.8 mph - N/A   Overcast
6:15 AM 50.0 °F - 44.6 °F 82% 29.90 in 10.0 mi SSE 13.8 mph - N/A   Overcast
6:35 AM 50.0 °F - 44.6 °F 82% 29.90 in 10.0 mi South 13.8 mph - N/A   Overcast
6:55 AM 50.0 °F - 46.4 °F 87% 29.91 in 10.0 mi SSE 12.7 mph - N/A   Overcast
7:15 AM 51.8 °F - 44.6 °F 76% 29.90 in 10.0 mi South 12.7 mph - N/A   Overcast
7:35 AM 51.8 °F - 46.4 °F 82% 29.91 in 10.0 mi South 8.1 mph - N/A   Overcast
7:55 AM 51.8 °F - 46.4 °F 82% 29.92 in 9.0 mi SSW 8.1 mph - N/A   Overcast
8:15 AM 50.0 °F - 46.4 °F 87% 29.92 in 5.0 mi SW 6.9 mph - 0.03 in   Overcast
8:35 AM 50.0 °F - 46.4 °F 87% 29.93 in 5.0 mi SW 6.9 mph - 0.05 in   Overcast
8:55 AM 50.0 °F - 46.4 °F 87% 29.93 in 10.0 mi SW 5.8 mph - 0.05 in   Mostly Cloudy
9:15 AM 50.0 °F - 46.4 °F 87% 29.95 in 7.0 mi West 3.5 mph - 0.02 in   Overcast
9:35 AM 48.2 °F - 46.4 °F 93% 29.96 in 10.0 mi WNW 5.8 mph - 0.02 in   Overcast
9:55 AM 50.0 °F - 46.4 °F 87% 29.99 in 10.0 mi NW 10.4 mph - 0.02 in   Overcast
10:15 AM 48.2 °F - 42.8 °F 82% 30.01 in 10.0 mi North 8.1 mph - N/A   Overcast
10:35 AM 50.0 °F - 42.8 °F 76% 30.02 in 10.0 mi NNW 8.1 mph - N/A   Mostly Cloudy
10:55 AM 51.8 °F - 42.8 °F 71% 30.04 in 10.0 mi NNW 10.4 mph 23.0 mph N/A   Clear
11:15 AM 53.6 °F - 41.0 °F 62% 30.06 in 10.0 mi NNW 15.0 mph 23.0 mph N/A   Clear
11:35 AM 53.6 °F - 41.0 °F 62% 30.07 in 10.0 mi NW 13.8 mph 21.9 mph N/A   Clear
11:55 AM 53.6 °F - 42.8 °F 67% 30.08 in 10.0 mi NNW 17.3 mph 20.7 mph N/A   Clear
12:15 PM 55.4 °F - 41.0 °F 58% 30.09 in 10.0 mi NNW 11.5 mph 18.4 mph N/A   Clear
12:35 PM 55.4 °F - 41.0 °F 58% 30.10 in 10.0 mi NNW 12.7 mph - N/A   Partly Cloudy
12:55 PM 53.6 °F - 39.2 °F 58% 30.10 in 10.0 mi NNW 13.8 mph 21.9 mph N/A   Scattered Clouds
1:15 PM 53.6 °F - 39.2 °F 58% 30.11 in 10.0 mi NW 17.3 mph 21.9 mph N/A   Scattered Clouds
1:35 PM 55.4 °F - 39.2 °F 54% 30.11 in 10.0 mi NW 12.7 mph 19.6 mph N/A   Mostly Cloudy
1:55 PM 55.4 °F - 39.2 °F 54% 30.12 in 10.0 mi NW 10.4 mph - N/A   Overcast
2:15 PM 53.6 °F - 39.2 °F 58% 30.12 in 10.0 mi WNW 8.1 mph - N/A   Overcast
2:35 PM 53.6 °F - 41.0 °F 62% 30.13 in 10.0 mi SSE 8.1 mph - N/A   Overcast
2:55 PM 51.8 °F - 41.0 °F 67% 30.14 in 10.0 mi Calm Calm - N/A   Overcast
3:15 PM 51.8 °F - 42.8 °F 71% 30.15 in 10.0 mi West 8.1 mph - N/A   Overcast
3:35 PM 51.8 °F - 44.6 °F 76% 30.16 in 10.0 mi SSE 9.2 mph - N/A   Mostly Cloudy
3:55 PM 51.8 °F - 42.8 °F 71% 30.17 in 10.0 mi NNE 3.5 mph - N/A   Overcast
4:15 PM 53.6 °F - 41.0 °F 62% 30.18 in 10.0 mi NW 10.4 mph - N/A   Mostly Cloudy
4:35 PM 51.8 °F - 39.2 °F 62% 30.19 in 10.0 mi NW 10.4 mph - N/A   Scattered Clouds
4:55 PM 51.8 °F - 41.0 °F 67% 30.20 in 10.0 mi NW 5.8 mph - N/A   Overcast
5:15 PM 53.6 °F - 41.0 °F 62% 30.21 in 10.0 mi NW 11.5 mph 16.1 mph N/A   Overcast
5:35 PM 53.6 °F - 39.2 °F 58% 30.22 in 10.0 mi NNW 10.4 mph - N/A   Mostly Cloudy
5:55 PM 53.6 °F - 39.2 °F 58% 30.23 in 10.0 mi NNW 9.2 mph - N/A   Mostly Cloudy
6:15 PM 51.8 °F - 39.2 °F 62% 30.24 in 10.0 mi WNW 5.8 mph - N/A   Mostly Cloudy
6:35 PM 51.8 °F - 39.2 °F 62% 30.24 in 10.0 mi Calm Calm - N/A   Mostly Cloudy
6:55 PM 51.8 °F - 37.4 °F 58% 30.25 in 10.0 mi West 11.5 mph 16.1 mph N/A   Mostly Cloudy
7:15 PM 51.8 °F - 37.4 °F 58% 30.27 in 10.0 mi West 8.1 mph - N/A   Overcast
7:35 PM 51.8 °F - 37.4 °F 58% 30.28 in 10.0 mi West 4.6 mph - N/A   Overcast
7:55 PM 50.0 °F - 37.4 °F 62% 30.28 in 10.0 mi West 9.2 mph - N/A   Overcast
8:15 PM 48.2 °F - 37.4 °F 66% 30.29 in 10.0 mi Calm Calm - N/A   Mostly Cloudy
8:35 PM 48.2 °F - 37.4 °F 66% 30.29 in 10.0 mi Calm Calm - N/A   Mostly Cloudy
8:55 PM 46.4 °F - 37.4 °F 71% 30.30 in 10.0 mi Calm Calm - N/A   Overcast
9:15 PM 46.4 °F 45.2 °F 39.2 °F 76% 30.32 in 10.0 mi SSE 3.5 mph - N/A   Overcast
9:35 PM 46.4 °F 43.5 °F 39.2 °F 76% 30.33 in 10.0 mi South 5.8 mph - N/A   Overcast
9:55 PM 46.4 °F 45.2 °F 39.2 °F 76% 30.34 in 10.0 mi SSW 3.5 mph - N/A   Overcast
10:15 PM 46.4 °F 42.9 °F 39.2 °F 76% 30.35 in 10.0 mi SSE 6.9 mph - N/A   Overcast
10:35 PM 46.4 °F 44.3 °F 42.8 °F 87% 30.35 in 10.0 mi SE 4.6 mph - N/A   Overcast
10:55 PM 48.2 °F - 42.8 °F 82% 30.36 in 10.0 mi SE 11.5 mph - N/A   Overcast
11:15 PM 46.4 °F 41.9 °F 42.8 °F 87% 30.36 in 10.0 mi ESE 9.2 mph - N/A   Overcast
11:35 PM 46.4 °F 42.4 °F 41.0 °F 81% 30.36 in 10.0 mi ESE 8.1 mph - N/A   Scattered Clouds
11:55 PM 46.4 °F 41.9 °F 39.2 °F 76% 30.35 in 10.0 mi East 9.2 mph - N/A   Clear